Location: Raleigh
(35.7720°N, 78.6390°W)
Time: 20:17:32
(UTC-04:00)

Amateur Radio Satellites - All Passes

Search period start: 30 March 2015 19:47
Search period end: 31 March 2015 19:47
Location: Raleigh, 35.7720°N, 78.6390°W

Satellite Date Start Highest point End Downlink Frequencies (MHz)
Time Altitude Azimuth
SRMSAT 30 Mar 19:53:01 19:54:45 11° 193° (SSW) 19:56:21 437.500
CUTE-I 30 Mar 20:02:18 20:06:07 19° 268° (W) 20:09:45 437.470
AIST 2 30 Mar 20:02:43 20:06:36 34° 54° (NE) 20:10:26 435.215
Cubesat XI-IV 30 Mar 20:02:57 20:06:44 19° 268° (W) 20:10:18 437.490
STRAND 1 30 Mar 20:20:37 20:25:45 87° 284° (WNW) 20:30:51 437.568
BEESAT 2 30 Mar 20:21:04 20:25:02 46° 245° (WSW) 20:28:55 435.950
GONETS M04 30 Mar 20:34:19 20:42:56 66° 280° (W) 20:51:37
CANX-2 30 Mar 20:37:07 20:40:43 28° 72° (ENE) 20:44:25 2200.000
CUBESAT XI-V 30 Mar 20:39:59 20:43:47 25° 289° (WNW) 20:47:27 437.345
BRITE-PL 30 Mar 20:43:57 20:48:40 65° 76° (ENE) 20:53:03 437.365/2234.400
CUSAT 1 30 Mar 20:44:25 20:46:17 16° 96° (E) 20:48:07 437.405
CUTE 1.7 + AOD 2 30 Mar 20:50:32 20:54:25 37° 73° (ENE) 20:58:22 437.475
HO-68 30 Mar 20:52:27 20:59:28 63° 71° (ENE) 21:06:34 435.675
PRISM 30 Mar 20:54:55 20:57:54 19° 291° (WNW) 21:00:44 437.425
BEESAT 3 30 Mar 20:57:52 21:00:18 15° 250° (WSW) 21:02:32 437.485
DOVE 4 30 Mar 21:06:16 21:10:24 45° 75° (ENE) 21:14:26 437.250
AAUSAT CUBESAT 2 30 Mar 21:09:49 21:13:36 35° 73° (ENE) 21:17:28 437.432
SEEDS 30 Mar 21:17:24 21:21:33 66° 76° (ENE) 21:25:46 437.485
RS-15 30 Mar 21:18:32 21:28:28 37° 316° (NW) 21:38:24 29.354- 29.394
GOMX 1 30 Mar 21:23:49 21:28:20 70° 259° (W) 21:32:37 467.674
DX 1 30 Mar 21:31:15 21:32:46 12° 66° (ENE) 21:34:32 434.975-435.025
COMPASS 1 30 Mar 21:37:40 21:41:51 87° 257° (WSW) 21:46:05 437.405
DANDE 30 Mar 21:41:14 21:44:26 72° 278° (W) 21:47:08 436.750
AIST 2 30 Mar 21:41:57 21:44:58 19° 249° (WSW) 21:47:49 435.215
Oscar 11 30 Mar 21:45:21 21:49:26 43° 74° (ENE) 21:53:33 145.826/435.025
FUNcube-1 30 Mar 21:59:19 22:02:52 29° 72° (ENE) 22:06:30 145.935
UWE-3 30 Mar 22:06:57 22:10:55 46° 74° (ENE) 22:14:55 435.000/436.395/437.385
ISS 30 Mar 22:11:34 22:14:42 48° 135° (SE) 22:17:52 145.825
ZACube-1 30 Mar 22:12:22 22:16:16 43° 74° (ENE) 22:20:14 437.345
CINEMA 3 30 Mar 22:12:35 22:16:44 57° 260° (W) 22:20:49 145.822/145.860
CANX-2 30 Mar 22:13:32 22:16:42 20° 267° (W) 22:19:46 2200.000
CUBEBUG 2 30 Mar 22:14:50 22:18:58 75° 77° (ENE) 22:23:07 437.445
DELFI C3 30 Mar 22:15:34 22:19:37 77° 77° (ENE) 22:23:43 145.870
VELOX 1 30 Mar 22:15:48 22:18:26 16° 68° (ENE) 22:21:14 145.980
AISAT 30 Mar 22:20:41 22:23:43 19° 69° (ENE) 22:26:53 437.250
CUTE 1.7 + AOD 2 30 Mar 22:27:57 22:30:32 15° 269° (W) 22:32:57 437.475
TIGRISAT 30 Mar 22:38:49 22:40:03 11° 90° (E) 22:41:36 435.000
HO-68 30 Mar 22:42:23 22:47:45 21° 268° (W) 22:52:49 435.675
DOVE 4 30 Mar 22:46:36 22:48:28 12° 269° (W) 22:50:04 437.250
AAUSAT CUBESAT 2 30 Mar 22:46:51 22:49:24 15° 268° (W) 22:51:50 437.432
HUMSAT D 30 Mar 22:51:35 22:55:37 62° 75° (ENE) 22:59:41 437.325/437.525
UKube-1 30 Mar 22:52:03 22:56:23 83° 257° (WSW) 23:00:45 .
ESTCUBE 1 30 Mar 22:54:39 22:58:06 22° 70° (ENE) 23:01:39 437.505/2401.250
DX 1 30 Mar 23:04:20 23:08:37 55° 260° (W) 23:12:54 434.975-435.025
QB50P2 30 Mar 23:06:09 23:06:33 10° 90° (E) 23:07:16 145.880/145.840
ANTELSAT 30 Mar 23:07:43 23:11:31 26° 95° (E) 23:15:28 437.575/2403.000
PCSat 30 Mar 23:17:04 23:20:47 19° 49° (NE) 23:24:38 145.827
50 SAT 30 Mar 23:20:55 23:24:49 87° 255° (WSW) 23:28:46 437.505
Oscar 11 30 Mar 23:23:38 23:25:53 13° 269° (W) 23:27:55 145.826/435.025
BUGSAT 1 30 Mar 23:25:11 23:26:16 11° 91° (E) 23:27:37 437.445
POPSAT HIP 1 30 Mar 23:32:05 23:35:19 22° 94° (E) 23:38:40 437.405
FUNcube-1 30 Mar 23:36:22 23:39:17 18° 267° (W) 23:42:06 145.935
TISAT 1 30 Mar 23:36:53 23:37:43 11° 67° (ENE) 23:38:48 437.305
RS-15 30 Mar 23:40:20 23:45:38 14° 349° (NNW) 23:50:46 29.354- 29.394
NANOSAT C BR1 30 Mar 23:41:46 23:45:23 28° 96° (E) 23:49:05 145.865
CUBEBUG 1 30 Mar 23:45:49 23:50:13 74° 77° (ENE) 23:54:37 437.445
UWE-3 30 Mar 23:46:28 23:47:49 11° 270° (W) 23:48:54 435.000/436.395/437.385
POLYITAN 1 30 Mar 23:47:12 23:51:04 34° 97° (E) 23:54:57 437.675
ISS 30 Mar 23:48:59 23:51:19 18° 331° (NNW) 23:53:36 145.825
SPROUT 30 Mar 23:50:30 23:53:30 19° 70° (ENE) 23:56:37 437.525
VELOX 1 30 Mar 23:50:30 23:54:43 41° 261° (W) 23:58:55 145.980
ZACube-1 30 Mar 23:51:09 23:52:57 12° 270° (W) 23:54:32 437.345
AISAT 30 Mar 23:56:03 00:00:07 34° 263° (W) 00:04:09 437.250
UNISAT 6 31 Mar 00:03:06 00:07:43 75° 283° (WNW) 00:12:23 437.425
TIGRISAT 31 Mar 00:12:41 00:17:13 60° 285° (WNW) 00:21:49 435.000
QB50P1 31 Mar 00:23:15 00:27:30 86° 284° (WNW) 00:31:44 145.935-145.965
DUCHIFAT 1 31 Mar 00:24:12 00:28:26 86° 283° (WNW) 00:32:39 145.980
ESTCUBE 1 31 Mar 00:30:47 00:34:49 30° 264° (W) 00:38:49 437.505/2401.250
YUBILEINY 31 Mar 00:34:26 00:42:12 35° 72° (ENE) 00:50:05 435.215
QB50P2 31 Mar 00:38:43 00:42:52 54° 285° (WNW) 00:47:01 145.880/145.840
ANTELSAT 31 Mar 00:44:21 00:48:16 27° 289° (WNW) 00:52:08 437.575/2403.000
BUGSAT 1 31 Mar 00:58:13 01:02:04 44° 286° (WNW) 01:05:54 437.445
PCSat 31 Mar 00:59:19 01:04:39 59° 247° (WSW) 01:09:57 145.827
SWISSCUBE 31 Mar 01:02:57 01:06:14 19° 68° (ENE) 01:09:41 437.505
BEESAT 31 Mar 01:05:41 01:08:55 19° 68° (ENE) 01:12:19 436.000
POPSAT HIP 1 31 Mar 01:07:39 01:11:13 26° 289° (WNW) 01:14:42 437.405
TISAT 1 31 Mar 01:08:56 01:13:06 57° 260° (W) 01:17:15 437.305
NANOSAT C BR1 31 Mar 01:17:56 01:21:07 20° 290° (WNW) 01:24:10 145.865
POLYITAN 1 31 Mar 01:23:53 01:26:46 17° 291° (WNW) 01:29:30 437.675
SPROUT 31 Mar 01:25:35 01:29:25 31° 264° (W) 01:33:13 437.525
ITUPSAT 1 31 Mar 01:51:56 01:56:38 56° 74° (ENE) 02:01:23 437.325
RS-15 31 Mar 01:57:23 02:04:33 19° 25° (NNE) 02:12:19 29.354- 29.394
KKS-1 31 Mar 02:24:37 02:27:56 22° 69° (ENE) 02:31:21 437.445
ITAMSAT 1 31 Mar 02:28:45 02:31:36 15° 91° (E) 02:34:42 435.822/435.867
YUBILEINY 31 Mar 02:30:58 02:39:14 46° 271° (W) 02:47:20 435.215
SO-50 31 Mar 02:37:29 02:38:53 11° 40° (NE) 02:40:32 436.795
SWISSCUBE 31 Mar 02:39:20 02:43:51 40° 262° (W) 02:48:21 437.505
BEESAT 31 Mar 02:41:59 02:46:30 40° 262° (W) 02:51:01 436.000
STARS 31 Mar 02:52:19 02:55:59 27° 71° (ENE) 02:59:43 437.465
Oscar 19 31 Mar 02:57:05 03:02:17 78° 285° (WNW) 03:07:28 437.125/150
Gurwin Techsat 1B 31 Mar 03:25:41 03:30:49 48° 99° (E) 03:35:57 435.225
ITUPSAT 1 31 Mar 03:32:41 03:34:58 13° 270° (W) 03:36:57 437.325
AIST 1 31 Mar 03:40:17 03:43:10 18° 89° (E) 03:46:12
O/OREOS (USA 219) 31 Mar 03:55:57 04:00:21 48° 106° (ESE) 04:04:48 437.305
KKS-1 31 Mar 04:00:31 04:04:26 29° 264° (W) 04:08:17 437.445
ITAMSAT 1 31 Mar 04:06:28 04:11:31 54° 287° (WNW) 04:16:31 435.822/435.867
VERMONT LUNAR 31 Mar 04:06:31 04:09:06 21° 147° (SSE) 04:11:44 437.305
RS-15 31 Mar 04:09:04 04:20:21 58° 53° (NE) 04:32:11 29.354- 29.394
MOZHAYETS 4 31 Mar 04:12:04 04:15:01 18° 68° (ENE) 04:18:08
SO-50 31 Mar 04:15:22 04:20:20 79° 59° (ENE) 04:25:14 436.795
STARS 31 Mar 04:28:57 04:32:26 22° 265° (W) 04:35:50 437.465
HORYU 2 31 Mar 04:30:54 04:35:16 48° 99° (E) 04:39:38 437.375
ISS 31 Mar 04:41:48 04:44:13 19° 30° (NNE) 04:46:40 145.825
AO-7 31 Mar 04:44:19 04:51:58 41° 99° (E) 04:59:43 29.400- 29.500
M-CUBED/EXP-1 PRIME 31 Mar 04:46:14 04:49:07 19° 63° (ENE) 04:52:17 437.505
JAS-2 31 Mar 04:56:44 05:04:00 47° 96° (E) 05:10:39 435.910
PHONESAT 2.4 31 Mar 05:01:13 05:04:05 24° 147° (SSE) 05:07:00 2401.200-2431.200
Gurwin Techsat 1B 31 Mar 05:06:44 05:10:28 19° 293° (WNW) 05:14:01 435.225
AIST 1 31 Mar 05:16:40 05:20:37 31° 283° (WNW) 05:24:32
O/OREOS (USA 219) 31 Mar 05:37:18 05:40:07 15° 303° (WNW) 05:42:46 437.305
VERMONT LUNAR 31 Mar 05:43:14 05:46:34 74° 340° (NNW) 05:49:55 437.305
MOZHAYETS 4 31 Mar 05:47:37 05:51:57 40° 262° (W) 05:56:20
AUBIESAT-1 31 Mar 05:53:34 05:57:33 77° 254° (WSW) 06:01:56 437.475
STRAND 1 31 Mar 05:58:52 06:00:03 11° 63° (ENE) 06:01:33 437.568
SO-50 31 Mar 05:59:30 06:00:20 10° 252° (WSW) 06:00:49 436.795
CUBESAT XI-V 31 Mar 06:03:39 06:07:03 21° 69° (ENE) 06:10:36 437.345
PRISM 31 Mar 06:07:28 06:10:04 17° 68° (ENE) 06:12:49 437.425
HORYU 2 31 Mar 06:09:04 06:11:34 14° 293° (WNW) 06:13:51 437.375
ISS 31 Mar 06:17:42 06:20:45 40° 226° (SW) 06:23:47 145.825
M-CUBED/EXP-1 PRIME 31 Mar 06:20:12 06:23:47 31° 260° (W) 06:27:37 437.505
RS-15 31 Mar 06:22:01 06:32:32 39° 251° (WSW) 06:43:08 29.354- 29.394
AO-7 31 Mar 06:37:08 06:44:45 41° 295° (WNW) 06:52:15 29.400- 29.500
PHONESAT 2.4 31 Mar 06:38:43 06:42:14 72° 340° (NNW) 06:45:46 2401.200-2431.200
CUTE-I 31 Mar 06:41:21 06:45:28 23° 94° (E) 06:49:42 437.470
Cubesat XI-IV 31 Mar 06:42:03 06:46:14 24° 94° (E) 06:50:32 437.490
JAS-2 31 Mar 06:42:06 06:48:45 32° 294° (WNW) 06:54:47 435.910
GONETS M04 31 Mar 06:48:03 06:56:40 56° 78° (ENE) 07:05:20
CUSAT 1 31 Mar 07:20:56 07:24:24 20° 77° (ENE) 07:28:47 437.405
VERMONT LUNAR 31 Mar 07:21:25 07:24:32 35° 357° (N) 07:27:39 437.305
STRAND 1 31 Mar 07:33:30 07:38:40 82° 259° (W) 07:43:50 437.568
CUBESAT XI-V 31 Mar 07:39:59 07:44:18 35° 263° (W) 07:48:35 437.345
PRISM 31 Mar 07:41:24 07:45:17 35° 262° (W) 07:49:11 437.425
PHONESAT 2.4 31 Mar 08:17:33 08:20:52 36° 358° (N) 08:24:10 2401.200-2431.200
CUTE-I 31 Mar 08:20:47 08:25:41 37° 289° (WNW) 08:30:30 437.470
DANDE 31 Mar 08:20:59 08:25:20 59° 81° (E) 08:31:13 436.750
Cubesat XI-IV 31 Mar 08:21:35 08:26:27 37° 289° (WNW) 08:31:15 437.490
HO-68 31 Mar 08:26:55 08:29:02 12° 87° (E) 08:31:48 435.675
GONETS M04 31 Mar 08:45:50 08:53:05 28° 275° (W) 09:00:01
BRITE-PL 31 Mar 08:51:42 08:55:04 23° 95° (E) 08:58:40 437.365/2234.400
VERMONT LUNAR 31 Mar 08:59:19 09:02:34 49° 13° (NNE) 09:05:51 437.305
CUSAT 1 31 Mar 09:02:38 09:07:08 40° 263° (W) 09:12:55 437.405
SEEDS 31 Mar 09:06:23 09:08:31 14° 91° (E) 09:10:52 437.485
DOVE 4 31 Mar 09:08:43 09:11:17 15° 93° (E) 09:14:08 437.250
BEESAT 3 31 Mar 09:10:59 09:13:13 15° 110° (ESE) 09:15:37 437.485
COMPASS 1 31 Mar 09:25:09 09:28:07 19° 93° (E) 09:31:11 437.405
GOMX 1 31 Mar 09:28:00 09:32:04 38° 98° (E) 09:36:23 467.674
PHONESAT 2.4 31 Mar 09:56:05 09:59:33 54° 15° (NNE) 10:03:02 2401.200-2431.200
AIST 2 31 Mar 09:59:40 10:01:56 15° 110° (ESE) 10:04:24 435.215
DELFI C3 31 Mar 09:59:59 10:01:52 13° 91° (E) 10:03:58 145.870
CANX-2 31 Mar 10:00:24 10:04:44 87° 101° (E) 10:09:03 2200.000
UWE-3 31 Mar 10:01:10 10:03:03 13° 91° (E) 10:05:14 435.000/436.395/437.385
ANTELSAT 31 Mar 10:05:27 10:07:55 16° 68° (ENE) 10:10:35 437.575/2403.000
ZACube-1 31 Mar 10:05:58 10:07:07 11° 90° (E) 10:08:36 437.345
DANDE 31 Mar 10:06:38 10:08:44 12° 265° (W) 10:10:39 436.750
CUBEBUG 2 31 Mar 10:09:14 10:12:29 20° 94° (E) 10:15:56 437.445
CINEMA 3 31 Mar 10:09:45 10:13:57 39° 98° (E) 10:18:21 145.822/145.860
HO-68 31 Mar 10:10:39 10:17:54 85° 105° (ESE) 10:25:06 435.675
BEESAT 2 31 Mar 10:12:09 10:16:12 66° 117° (ESE) 10:20:20 435.950
CUTE 1.7 + AOD 2 31 Mar 10:14:04 10:18:22 72° 283° (WNW) 10:22:38 437.475
POPSAT HIP 1 31 Mar 10:24:02 10:25:38 12° 67° (ENE) 10:27:26 437.405
BRITE-PL 31 Mar 10:30:04 10:33:36 25° 288° (WNW) 10:37:12 437.365/2234.400
AAUSAT CUBESAT 2 31 Mar 10:30:52 10:35:07 79° 284° (WNW) 10:39:20 437.432
NANOSAT C BR1 31 Mar 10:32:53 10:35:19 16° 69° (ENE) 10:37:56 145.865
VERMONT LUNAR 31 Mar 10:37:05 10:40:15 39° 209° (SSW) 10:43:24 437.305
POLYITAN 1 31 Mar 10:38:30 10:41:23 19° 70° (ENE) 10:44:23 437.675
HUMSAT D 31 Mar 10:40:20 10:42:13 13° 91° (E) 10:44:22 437.325/437.525
SEEDS 31 Mar 10:40:31 10:44:35 41° 286° (WNW) 10:48:35 437.485
UKube-1 31 Mar 10:43:27 10:46:35 20° 94° (E) 10:49:51 .
DOVE 4 31 Mar 10:45:06 10:49:14 41° 286° (WNW) 10:53:34 437.250
BEESAT 3 31 Mar 10:47:04 10:50:57 40° 304° (NW) 10:54:52 437.485
DX 1 31 Mar 10:55:52 10:59:40 30° 97° (E) 11:03:29 434.975-435.025
UNISAT 6 31 Mar 10:59:27 11:03:40 67° 76° (ENE) 11:07:58 437.425
COMPASS 1 31 Mar 11:00:07 11:03:52 30° 288° (WNW) 11:07:33 437.405
50 SAT 31 Mar 11:02:57 11:05:09 15° 92° (E) 11:07:33 437.505
GOMX 1 31 Mar 11:07:13 11:10:01 16° 290° (WNW) 11:12:44 467.674
TIGRISAT 31 Mar 11:08:42 11:12:56 84° 77° (ENE) 11:17:15 435.000
Oscar 11 31 Mar 11:11:22 11:15:41 60° 284° (WNW) 11:19:57 145.826/435.025
QB50P1 31 Mar 11:13:13 11:17:15 47° 74° (ENE) 11:21:19 145.935-145.965
DUCHIFAT 1 31 Mar 11:13:53 11:17:54 46° 74° (ENE) 11:21:56 145.980
FUNcube-1 31 Mar 11:25:45 11:30:11 83° 284° (WNW) 11:34:42 145.935
QB50P2 31 Mar 11:28:36 11:32:48 76° 77° (ENE) 11:37:02 145.880/145.840
DELFI C3 31 Mar 11:33:25 11:37:17 39° 286° (WNW) 11:41:05 145.870
PHONESAT 2.4 31 Mar 11:34:33 11:37:50 37° 210° (SSW) 11:41:09 2401.200-2431.200
UWE-3 31 Mar 11:35:35 11:39:54 50° 285° (WNW) 11:44:19 435.000/436.395/437.385
AIST 2 31 Mar 11:36:07 11:40:12 44° 303° (WNW) 11:44:20 435.215
CUBEBUG 1 31 Mar 11:38:56 11:41:38 17° 92° (E) 11:44:29 437.445
ZACube-1 31 Mar 11:39:32 11:43:53 56° 285° (WNW) 11:48:18 437.345
ANTELSAT 31 Mar 11:40:27 11:44:26 38° 262° (W) 11:48:28 437.575/2403.000
VELOX 1 31 Mar 11:43:50 11:48:03 44° 99° (E) 11:52:16 145.980
BUGSAT 1 31 Mar 11:45:03 11:49:13 82° 79° (E) 11:53:21 437.445
CUBEBUG 2 31 Mar 11:45:14 11:49:15 32° 287° (WNW) 11:53:19 437.445
CINEMA 3 31 Mar 11:47:54 11:50:57 18° 290° (WNW) 11:53:55 145.822/145.860
AISAT 31 Mar 11:49:21 11:53:40 54° 100° (E) 11:58:00 437.250
BEESAT 2 31 Mar 11:53:06 11:54:51 12° 315° (NW) 11:56:27 435.950
POPSAT HIP 1 31 Mar 11:57:03 12:01:09 49° 261° (W) 12:05:15 437.405
HO-68 31 Mar 12:00:23 12:04:52 17° 300° (WNW) 12:08:58 435.675
NANOSAT C BR1 31 Mar 12:06:59 12:10:55 37° 262° (W) 12:14:49 145.865
POLYITAN 1 31 Mar 12:13:22 12:17:08 30° 263° (W) 12:20:51 437.675
HUMSAT D 31 Mar 12:14:11 12:18:16 44° 286° (WNW) 12:22:21 437.325/437.525
UKube-1 31 Mar 12:19:00 12:22:47 29° 289° (WNW) 12:26:29 .
ESTCUBE 1 31 Mar 12:25:49 12:30:19 70° 101° (E) 12:34:47 437.505/2401.250
DX 1 31 Mar 12:32:30 12:35:45 20° 291° (WNW) 12:38:52 434.975-435.025
Oscar 19 31 Mar 12:35:30 12:37:21 12° 64° (ENE) 12:39:29 437.125/150
50 SAT 31 Mar 12:36:31 12:40:13 35° 287° (WNW) 12:43:54 437.505
QB50P1 31 Mar 12:51:48 12:53:28 12° 270° (W) 12:54:52 145.935-145.965
DUCHIFAT 1 31 Mar 12:52:22 12:54:03 12° 269° (W) 12:55:28 145.980
TISAT 1 31 Mar 12:56:53 13:00:24 26° 96° (E) 13:03:59 437.305
JUGNU 31 Mar 13:11:05 13:13:13 12° 168° (SSE) 13:15:27 437.505
CUBEBUG 1 31 Mar 13:14:12 13:18:10 35° 287° (WNW) 13:22:03 437.445
SPROUT 31 Mar 13:14:37 13:18:49 54° 100° (E) 13:23:02 437.525
VELOX 1 31 Mar 13:21:47 13:24:17 15° 293° (WNW) 13:26:36 145.980
AISAT 31 Mar 13:27:59 13:29:53 12° 293° (WNW) 13:31:32 437.250
YUBILEINY 31 Mar 13:31:24 13:39:29 44° 89° (E) 13:47:44 435.215
ITAMSAT 1 31 Mar 13:43:58 13:47:27 19° 67° (ENE) 13:51:07 435.822/435.867
PCSat 31 Mar 13:55:40 14:00:06 27° 108° (ESE) 14:04:40 145.827
ITUPSAT 1 31 Mar 13:56:36 13:59:49 18° 93° (E) 14:03:11 437.325
ESTCUBE 1 31 Mar 14:06:19 14:06:41 10° 295° (WNW) 14:06:46 437.505/2401.250
O/OREOS (USA 219) 31 Mar 14:08:46 14:13:14 56° 67° (ENE) 14:17:40 437.305
Oscar 19 31 Mar 14:11:04 14:16:10 72° 258° (WSW) 14:21:18 437.125/150
TISAT 1 31 Mar 14:32:51 14:36:06 21° 290° (WNW) 14:39:14 437.305
SWISSCUBE 31 Mar 14:42:16 14:47:02 66° 101° (E) 14:51:47 437.505
Gurwin Techsat 1B 31 Mar 14:43:52 14:49:02 58° 74° (ENE) 14:54:16 435.225
BEESAT 31 Mar 14:44:50 14:49:36 64° 102° (ESE) 14:54:20 436.000
SPROUT 31 Mar 14:52:56 14:54:30 12° 293° (WNW) 14:55:50 437.525
JUGNU 31 Mar 14:57:50 15:01:30 17° 178° (S) 15:05:11 437.505
JAS-2 31 Mar 15:07:10 15:11:12 17° 59° (ENE) 15:15:49 435.910
ITAMSAT 1 31 Mar 15:21:37 15:26:38 47° 261° (W) 15:31:40 435.822/435.867
AIST 1 31 Mar 15:26:29 15:30:35 44° 79° (E) 15:34:41
HORYU 2 31 Mar 15:26:45 15:30:37 31° 72° (ENE) 15:34:35 437.375
YUBILEINY 31 Mar 15:28:27 15:36:27 36° 287° (WNW) 15:44:21 435.215
ITUPSAT 1 31 Mar 15:33:26 15:37:55 39° 288° (WNW) 15:42:18 437.325
PCSat 31 Mar 15:38:24 15:43:23 36° 304° (NW) 15:48:21 145.827
AO-7 31 Mar 15:40:10 15:47:49 44° 66° (ENE) 15:55:34 29.400- 29.500
O/OREOS (USA 219) 31 Mar 15:50:52 15:52:12 11° 261° (W) 15:53:14 437.305
KKS-1 31 Mar 15:53:50 15:58:15 65° 101° (E) 16:02:41 437.445
SRMSAT 31 Mar 16:01:32 16:04:59 16° 175° (S) 16:08:28 437.500
STARS 31 Mar 16:20:26 16:24:52 82° 102° (ESE) 16:29:17 437.465
SWISSCUBE 31 Mar 16:22:31 16:24:24 12° 295° (WNW) 16:26:02 437.505
BEESAT 31 Mar 16:24:56 16:26:58 12° 295° (WNW) 16:28:44 436.000
Gurwin Techsat 1B 31 Mar 16:26:23 16:29:28 15° 270° (W) 16:32:17 435.225
JUGNU 31 Mar 16:46:34 16:49:48 15° 188° (S) 16:52:59 437.505
JAS-2 31 Mar 16:48:21 16:55:13 89° 256° (WSW) 17:02:54 435.910
HORYU 2 31 Mar 17:04:03 17:07:21 20° 266° (W) 17:10:34 437.375
AIST 1 31 Mar 17:06:13 17:07:53 12° 273° (W) 17:09:16
AO-7 31 Mar 17:33:06 17:40:42 38° 262° (W) 17:48:11 29.400- 29.500
KKS-1 31 Mar 17:33:20 17:34:25 11° 294° (WNW) 17:35:14 437.445
AUBIESAT-1 31 Mar 17:39:48 17:41:37 12° 93° (E) 17:43:41 437.475
MOZHAYETS 4 31 Mar 17:45:23 17:49:59 59° 100° (E) 17:54:32
SRMSAT 31 Mar 17:49:55 17:53:27 16° 185° (S) 17:56:57 437.500
CUTE-I 31 Mar 18:00:21 18:04:55 30° 69° (ENE) 18:09:33 437.470
Cubesat XI-IV 31 Mar 18:01:12 18:05:49 31° 70° (ENE) 18:10:31 437.490
M-CUBED/EXP-1 PRIME 31 Mar 18:04:30 18:08:35 27° 99° (E) 18:12:35 437.505
SO-50 31 Mar 18:27:07 18:31:31 49° 115° (ESE) 18:36:07 436.795
RS-15 31 Mar 18:29:33 18:39:35 47° 110° (ESE) 18:49:52 29.354- 29.394
BEESAT 2 31 Mar 18:35:10 18:38:02 18° 49° (NE) 18:40:58 435.950
JAS-2 31 Mar 18:37:58 18:41:32 14° 276° (W) 18:44:41 435.910
BEESAT 3 31 Mar 19:08:36 19:12:33 46° 57° (ENE) 19:16:28 437.485
AUBIESAT-1 31 Mar 19:12:08 19:16:54 62° 290° (WNW) 19:21:29 437.475
MOZHAYETS 4 31 Mar 19:24:41 19:26:45 13° 294° (WNW) 19:28:35
PRISM 31 Mar 19:26:45 19:30:37 37° 98° (E) 19:34:28 437.425
M-CUBED/EXP-1 PRIME 31 Mar 19:39:11 19:43:23 29° 294° (WNW) 19:47:25 437.505
SRMSAT 31 Mar 19:41:12 19:41:52 10° 194° (SSW) 19:42:25 437.500
